Wetbulb
53.72 52.41 52.36 52.25 51.58 51.26 51.14 51.92 53.30 52.86 52.71 52.93 53.40 53.60 54.66 54.27 55.27 57.37 57.17 59.39 60.49 60.84
53.41 52.91 52.06 52.91 52.23 50.94 51.24 50.97 51.55 51.25 51.10 51.12 51.25 51.26 51.66 51.18 52.83 55.78 56.28 56.68 58.56 60.64
52.28 52.54 52.74 52.69 51.39 50.47 50.24 50.18 49.54 48.74 48.68 49.57 49.42 49.46 49.33 48.83 50.36 51.80 52.99 54.94 56.32 58.33
51.27 51.38 51.84 51.46 51.18 50.50 49.78 49.36 47.94 46.90 46.79 46.90 47.30 48.20 47.22 46.89 46.97 48.25 49.56 51.98 54.07 55.89
51.29 50.96 50.18 50.39 50.50 50.64 49.17 48.92 47.37 46.63 45.74 45.56 45.08 44.69 44.23 43.55 44.88 44.39 44.90 46.95 50.02 53.35
50.53 50.18 50.01 50.20 50.01 49.72 49.38 48.60 47.39 46.18 45.12 44.19 44.72 44.23 43.65 44.19 43.53 42.33 42.85 42.18 46.59 49.26
50.09 49.92 49.61 49.63 49.51 48.77 48.47 48.49 47.82 46.29 45.44 45.26 45.14 43.90 43.90 42.96 41.80 41.60 42.03 43.47 43.39 45.80
50.03 50.03 49.29 48.50 48.63 48.42 47.93 48.03 47.77 46.54 45.78 44.54 45.06 44.31 42.23 41.55 41.00 40.49 40.69 42.56 44.21 46.40
49.65 49.16 48.06 47.41 47.74 47.14 46.71 47.52 46.91 46.47 45.05 43.97 43.38 43.55 42.53 42.17 40.32 40.32 41.80 42.80 45.81 48.41
48.79 48.48 47.01 46.11 46.12 45.62 45.56 46.87 46.22 45.19 45.50 44.51 44.12 41.93 41.17 41.94 40.29 39.46 39.63 42.09 43.57 47.69
47.95 47.76 47.19 43.85 42.87 43.33 44.66 45.61 44.96 44.15 44.23 43.61 43.38 41.43 40.44 40.98 39.79 39.39 38.52 41.38 43.35 46.40
47.57 47.11 47.31 44.66 42.36 42.31 43.84 44.90 44.41 43.42 43.07 42.29 42.30 40.83 39.58 39.41 38.82 38.33 37.95 41.05 42.89 44.48
47.83 47.29 46.60 45.24 42.92 43.35 44.20 44.41 44.07 43.59 43.25 42.22 41.85 40.90 38.87 38.53 38.57 36.99 37.17 39.06 41.87 43.83
47.50 47.50 47.37 45.60 45.17 43.48 43.25 44.08 43.32 42.43 42.79 42.55 42.51 42.40 38.51 38.26 38.05 37.92 37.68 37.10 39.30 41.75
MSLP
1022.16 1021.88 1021.56 1021.67 1021.44 1020.81 1020.46 1019.94 1019.84 1019.54 1019.32 1018.81 1018.19 1017.41 1016.69 1015.93 1015.11 1014.45 1013.64 1012.87 1012.27 1011.77
1022.20 1022.16 1022.02 1021.74 1021.64 1021.33 1021.04 1020.57 1020.09 1019.77 1019.32 1018.82 1018.29 1017.74 1017.09 1016.16 1015.19 1014.32 1013.42 1012.59 1011.81 1010.90
1022.19 1022.13 1021.90 1021.65 1021.59 1021.51 1021.27 1020.85 1020.49 1020.17 1019.64 1018.93 1018.35 1017.81 1017.25 1016.40 1015.44 1014.49 1013.52 1012.34 1011.34 1010.48
1022.36 1022.30 1022.09 1021.77 1021.50 1021.35 1021.24 1020.91 1020.62 1020.28 1019.71 1019.07 1018.46 1017.80 1017.20 1016.51 1015.61 1014.43 1013.50 1012.62 1011.26 1009.98
1022.38 1022.27 1022.17 1021.74 1021.47 1021.08 1020.99 1020.81 1020.50 1020.13 1019.70 1019.11 1018.55 1017.97 1017.18 1016.22 1015.47 1014.58 1013.53 1012.47 1011.19 1009.63
1022.28 1022.20 1022.04 1021.68 1021.47 1021.09 1020.69 1020.44 1020.26 1019.97 1019.41 1018.79 1018.13 1017.53 1016.98 1016.02 1015.24 1014.51 1013.38 1012.40 1010.76 1009.17
1022.25 1022.27 1022.09 1021.95 1021.58 1021.21 1020.78 1020.14 1019.69 1019.64 1019.26 1018.69 1017.81 1017.16 1016.61 1015.95 1014.85 1013.61 1012.28 1011.14 1009.88 1008.59
1022.31 1022.31 1022.29 1022.23 1021.70 1021.33 1020.78 1020.10 1019.58 1019.29 1018.98 1018.48 1017.65 1016.84 1016.37 1015.39 1013.89 1012.27 1010.44 1009.14 1007.85 1006.45
1022.30 1022.24 1022.50 1022.58 1021.82 1021.44 1020.85 1020.03 1019.47 1019.03 1018.72 1018.19 1017.68 1017.00 1016.32 1015.22 1013.30 1011.04 1009.09 1007.04 1005.40 1004.23
1022.36 1022.09 1022.72 1022.96 1022.60 1021.95 1020.96 1019.94 1019.15 1018.96 1018.46 1017.85 1017.28 1016.80 1015.83 1014.48 1012.54 1010.45 1008.62 1006.46 1004.35 1002.21
1022.48 1022.20 1022.38 1023.03 1022.98 1022.49 1021.28 1019.89 1019.11 1018.86 1018.62 1017.86 1017.09 1016.50 1015.28 1013.90 1011.88 1009.84 1008.21 1005.89 1003.55 1001.12
1022.68 1022.37 1022.16 1022.67 1023.00 1022.40 1021.35 1019.93 1019.23 1018.92 1018.67 1017.98 1017.31 1016.48 1015.25 1013.78 1011.66 1009.99 1007.87 1005.25 1002.78 1000.52
1022.74 1022.42 1022.13 1022.61 1022.63 1022.24 1021.43 1020.03 1019.51 1018.89 1018.60 1018.13 1017.32 1016.29 1015.50 1014.32 1012.57 1010.27 1008.33 1005.72 1002.42 1000.00
1022.67 1022.33 1021.93 1022.33 1022.02 1021.85 1021.29 1020.23 1019.68 1019.21 1018.61 1018.09 1017.48 1016.51 1015.88 1014.71 1012.89 1011.07 1008.86 1006.66 1004.31 1002.15
Wind_Speed
13 11 11 12 11 11 11 12 16 15 16 17 18 17 16 14 15 16 14 18 14 12
11 13 12 12 13 12 14 13 16 17 16 15 16 17 18 15 18 17 16 16 17 16
12 13 14 13 14 15 15 16 17 18 18 17 17 17 16 14 18 19 17 15 18 17
13 14 14 13 14 15 16 16 17 17 17 18 17 17 17 17 18 19 18 20 21 22
13 13 14 14 16 16 16 16 16 16 16 16 17 18 19 20 17 19 18 21 23 24
12 14 15 15 16 17 16 16 17 17 18 18 17 17 17 18 19 19 19 19 22 21
12 12 14 15 16 17 18 17 16 16 17 17 19 19 18 20 20 21 20 22 21 23
11 13 14 15 16 17 17 17 18 18 18 16 16 14 21 23 23 23 23 23 25 24
12 12 13 16 17 18 18 18 15 16 18 18 13 24 32 32 23 26 24 21 22 23
12 12 12 15 17 18 18 18 17 17 18 20 19 27 32 37 22 21 21 23 21 23
12 13 11 12 12 16 17 17 16 17 17 18 18 28 33 38 23 21 24 23 21 25
12 14 12 13 11 13 17 15 16 15 16 17 19 27 33 32 21 20 24 22 21 22
12 13 11 13 11 10 15 15 15 17 13 19 18 25 31 30 15 20 18 21 23 33
12 12 10 11 11 10 12 15 15 17 17 18 17 19 27 32 18 16 16 17 19 19
Wind_Direction
17 10 4 360 351 345 338 333 332 334 323 319 316 314 312 304 300 296 291 291 282 282
6 13 5 359 358 357 346 338 342 336 330 325 318 313 311 304 304 297 290 284 281 276
4 359 359 1 2 357 351 347 345 342 336 330 329 322 311 300 300 300 299 291 286 286
5 355 358 353 355 356 348 349 346 341 335 336 331 326 321 309 301 286 284 285 281 275
358 356 348 352 350 351 350 345 343 343 337 332 329 326 319 313 307 297 296 289 277 278
357 359 339 351 350 343 343 345 344 340 336 336 332 329 317 319 315 301 295 292 288 270
352 355 345 348 345 344 342 335 340 342 335 323 336 332 333 318 309 298 291 285 277 276
347 347 348 348 338 341 341 337 343 335 338 329 327 334 333 324 314 304 293 281 274 265
342 344 354 344 341 340 337 333 340 332 339 339 327 329 329 331 318 310 302 298 288 268
342 343 5 337 346 336 333 333 343 345 336 338 336 337 329 330 323 318 310 302 294 287
344 340 2 348 336 336 328 333 346 347 338 336 338 341 335 334 330 323 319 308 304 301
343 339 351 346 335 333 325 333 343 350 338 340 333 344 340 339 334 328 329 324 321 322
341 337 353 343 334 332 328 335 340 341 345 339 335 346 346 343 332 335 335 335 345 347
344 332 339 356 323 336 327 333 342 341 342 341 341 341 346 343 343 342 342 348 354 360